Date,TemperatureHighF,TemperatureAvgF,TemperatureLowF,DewpointHighF,DewpointAvgF,DewpointLowF,HumidityHigh,HumidityAvg,HumidityLow,PressureMaxIn,PressureMinIn,WindSpeedMaxMPH,WindSpeedAvgMPH,GustSpeedMaxMPH,PrecipitationSumIn
2013-2-1,18,17,17,15,13,12,90,83,77,30.28,30.26,15,8,16,0.00
2013-2-2,25,18,5,22,15,1,93,89,80,30.27,30.04,17,7,18,0.00
2013-2-3,21,16,5,19,12,2,92,85,77,30.12,30.01,18,6,20,0.00
2013-2-4,28,24,20,24,22,18,93,89,83,30.10,29.87,10,4,0,0.00
2013-2-5,32,25,12,29,22,10,94,90,83,30.12,29.84,21,7,22,0.00
2013-2-6,38,30,19,30,25,16,90,82,69,30.28,30.12,13,4,15,0.00
2013-2-7,43,35,30,37,32,27,96,90,77,30.17,29.85,18,5,19,0.38
2013-2-8,33,29,27,32,26,23,95,89,81,30.42,29.92,23,9,24,0.00
2013-2-9,37,31,27,31,26,22,88,83,77,30.43,30.13,15,5,17,0.00
2013-2-10,49,40,31,47,37,27,95,90,78,30.13,29.55,29,11,37,0.18
2013-2-11,44,34,30,39,27,24,81,78,75,30.07,29.58,33,18,38,0.00
2013-2-12,30,26,21,25,23,18,93,85,81,30.15,29.97,17,6,19,0.00
2013-2-13,44,31,19,36,28,18,95,87,70,29.98,29.76,16,4,18,0.00
2013-2-14,40,35,30,35,31,26,93,84,71,30.01,29.71,24,9,25,0.00
2013-2-15,32,28,21,29,21,12,93,74,46,30.20,30.00,16,7,19,0.00
2013-2-16,21,17,11,14,8,5,78,69,55,30.23,30.15,17,8,19,0.00
2013-2-17,29,19,8,18,9,3,82,64,39,30.28,30.08,11,4,12,0.00
2013-2-18,53,40,26,44,33,18,93,77,64,30.09,29.46,34,14,35,0.20
2013-2-19,30,17,10,28,12,5,91,82,78,30.23,29.60,30,18,34,0.00
2013-2-20,25,16,7,18,10,3,88,77,65,30.40,30.23,15,6,17,0.00
2013-2-21,28,24,20,23,20,16,92,82,79,30.41,30.01,23,8,30,0.00
2013-2-22,33,28,23,32,26,21,96,91,81,30.00,29.86,22,10,23,0.02
2013-2-23,27,24,17,23,20,15,92,84,73,30.01,29.96,17,8,18,0.01
2013-2-24,36,23,11,25,19,9,92,83,61,30.19,30.01,9,2,0,0.00
2013-2-25,42,32,20,32,26,17,92,80,64,30.22,29.97,14,4,14,0.00
2013-2-26,34,33,32,31,29,26,96,88,72,29.96,29.50,24,10,29,0.39
2013-2-27,33,32,31,32,31,30,97,96,93,29.70,29.50,13,6,0,0.11
2013-2-28,35,32,29,32,30,25,96,90,83,30.07,29.70,20,11,23,0.01